TimeEST,TemperatureF,Dew PointF,Humidity,Sea Level PressureIn,VisibilityMPH,Wind Direction,Wind SpeedMPH,Gust SpeedMPH,PrecipitationIn,Events,Conditions,WindDirDegrees,DateUTC
12:04 AM,59.0,55.4,88,29.78,2.5,South,5.8,-,0.07,Rain,Light Rain,170,2012-12-10 05:04:00
12:12 AM,59.0,55.4,88,29.77,9.0,South,5.8,-,0.07,Rain,Light Rain,170,2012-12-10 05:12:00
12:53 AM,59.0,55.0,87,29.75,9.0,SSE,8.1,-,0.07,,Overcast,160,2012-12-10 05:53:00
1:53 AM,60.1,55.0,83,29.72,10.0,South,9.2,-,0.00,,Overcast,190,2012-12-10 06:53:00
2:22 AM,57.2,53.6,88,29.76,2.5,West,10.4,20.7,0.11,Rain,Rain,260,2012-12-10 07:22:00
2:26 AM,57.2,53.6,88,29.76,3.0,West,13.8,18.4,0.12,Rain,Rain,270,2012-12-10 07:26:00
2:53 AM,55.9,54.0,93,29.78,5.0,WSW,6.9,-,0.20,Rain,Light Rain,250,2012-12-10 07:53:00
3:53 AM,55.0,53.1,93,29.74,8.0,South,6.9,-,0.05,Rain,Light Rain,170,2012-12-10 08:53:00
4:53 AM,54.0,53.1,97,29.72,10.0,South,8.1,-,0.05,Rain,Light Rain,170,2012-12-10 09:53:00
5:53 AM,54.0,52.0,93,29.71,5.0,South,8.1,-,0.03,Rain,Light Rain,170,2012-12-10 10:53:00
8:53 AM,55.9,53.1,90,29.69,10.0,South,9.2,-,0.00,,Clear,190,2012-12-10 13:53:00
9:53 AM,55.9,53.1,90,29.68,10.0,South,8.1,-,0.00,Rain,Light Rain,170,2012-12-10 14:53:00
10:53 AM,55.9,53.1,90,29.66,8.0,South,10.4,-,0.01,Rain,Light Rain,180,2012-12-10 15:53:00
11:35 AM,55.4,53.6,94,29.65,8.0,South,10.4,-,0.02,Rain,Light Rain,180,2012-12-10 16:35:00
11:53 AM,57.0,53.1,87,29.62,10.0,South,9.2,-,0.02,,Overcast,190,2012-12-10 16:53:00
12:53 PM,51.1,48.9,92,29.63,2.5,Variable,4.6,19.6,0.04,Rain,Rain,0,2012-12-10 17:53:00
12:57 PM,51.8,48.2,88,29.64,1.8,West,8.1,-,0.02,Rain,Rain,270,2012-12-10 17:57:00
1:15 PM,50.0,46.4,87,29.63,4.0,WNW,9.2,-,0.05,Rain,Light Rain,300,2012-12-10 18:15:00
1:24 PM,48.2,46.4,93,29.64,3.0,WNW,10.4,-,0.07,Rain,Rain,290,2012-12-10 18:24:00
1:31 PM,48.2,46.4,93,29.64,2.5,WNW,8.1,-,0.08,Rain,Rain,300,2012-12-10 18:31:00
1:43 PM,48.2,46.4,93,29.65,3.0,WNW,9.2,-,0.10,Rain,Rain,290,2012-12-10 18:43:00
1:50 PM,48.2,46.4,93,29.65,2.5,WNW,8.1,-,0.11,Rain,Rain,290,2012-12-10 18:50:00
1:53 PM,48.9,46.9,93,29.64,2.5,West,4.6,-,0.12,Rain,Light Rain,280,2012-12-10 18:53:00
2:00 PM,48.2,46.4,93,29.65,3.0,West,9.2,-,0.01,Rain,Rain,280,2012-12-10 19:00:00
2:28 PM,48.2,46.4,93,29.65,3.0,West,10.4,-,0.05,Rain,Light Rain,280,2012-12-10 19:28:00
2:44 PM,46.4,44.6,93,29.66,4.0,WNW,9.2,17.3,0.07,Rain,Light Rain,300,2012-12-10 19:44:00
2:53 PM,46.0,44.1,93,29.67,9.0,WNW,10.4,-,0.07,Rain,Light Rain,300,2012-12-10 19:53:00
3:25 PM,46.4,42.8,87,29.66,10.0,WNW,9.2,-,0.01,Rain,Light Rain,300,2012-12-10 20:25:00
3:53 PM,43.0,39.9,89,29.69,9.0,NW,9.2,-,0.02,Rain,Light Rain,310,2012-12-10 20:53:00
4:39 PM,41.0,37.4,87,29.71,4.0,WNW,10.4,-,0.01,Rain,Light Rain,290,2012-12-10 21:39:00
4:53 PM,41.0,37.9,89,29.73,7.0,WNW,11.5,-,0.01,Rain,Light Rain,300,2012-12-10 21:53:00
5:39 PM,39.2,35.6,87,29.76,8.0,NW,10.4,18.4,0.02,Rain,Light Rain,310,2012-12-10 22:39:00
5:53 PM,39.0,35.1,86,29.78,8.0,WNW,9.2,-,0.02,Rain,Light Rain,290,2012-12-10 22:53:00
6:53 PM,37.0,35.1,93,29.80,3.0,NW,4.6,-,0.03,Rain,Heavy Rain,310,2012-12-10 23:53:00
7:27 PM,37.4,35.6,93,29.81,5.0,SW,3.5,-,0.01,Rain,Light Rain,230,2012-12-11 00:27:00
7:53 PM,37.9,35.1,89,29.81,4.0,Calm,Calm,-,0.02,Rain,Light Rain,0,2012-12-11 00:53:00
8:13 PM,37.4,35.6,93,29.80,3.0,Calm,Calm,-,0.03,Rain,Light Rain,0,2012-12-11 01:13:00
8:53 PM,36.0,35.1,97,29.84,5.0,Calm,Calm,-,0.05,Rain,Light Rain,0,2012-12-11 01:53:00
9:53 PM,37.0,35.1,93,29.87,6.0,Calm,Calm,-,0.01,Rain,Light Rain,0,2012-12-11 02:53:00
10:53 PM,37.0,34.0,89,29.89,6.0,West,5.8,-,0.00,Rain,Light Rain,260,2012-12-11 03:53:00
11:46 PM,35.6,33.8,93,29.89,8.0,West,8.1,-,0.01,,Overcast,280,2012-12-11 04:46:00
11:53 PM,36.0,32.0,86,29.90,8.0,West,8.1,16.1,0.01,,Overcast,270,2012-12-11 04:53:00